Time,TemperatureF,DewpointF,PressureIn,WindDirection,WindDirectionDegrees,WindSpeedMPH,WindSpeedGustMPH,Humidity,HourlyPrecipIn,Conditions,Clouds,dailyrainin,SoftwareType,DateUTC
2013-02-10 00:00:00,16.3,3.7,30.33,NW,315,2.0,5.0,57,0.00,,,-99.99,WeatherLink 5.7,2013-02-10 05:00:00,
2013-02-10 00:10:00,16.2,4.0,30.33,NW,315,1.0,5.0,58,0.00,,,-99.99,WeatherLink 5.7,2013-02-10 05:10:00,
2013-02-10 00:20:00,16.0,4.2,30.33,WNW,292,2.0,9.0,59,0.00,,,-99.99,WeatherLink 5.7,2013-02-10 05:20:00,
2013-02-10 00:30:00,15.9,4.1,30.33,NW,315,2.0,4.0,59,0.00,,,-99.99,WeatherLink 5.7,2013-02-10 05:30:00,
2013-02-10 00:40:00,16.0,4.5,30.33,NW,315,1.0,5.0,60,0.00,,,-99.99,WeatherLink 5.7,2013-02-10 05:40:00,
2013-02-10 00:51:00,16.0,4.9,30.32,NW,315,2.0,5.0,61,0.00,,,-99.99,WeatherLink 5.7,2013-02-10 05:51:00,
2013-02-10 01:00:00,16.2,5.1,30.33,NW,315,2.0,7.0,61,0.00,,,-99.99,WeatherLink 5.7,2013-02-10 06:00:00,
2013-02-10 01:10:00,16.2,5.5,30.33,NW,315,2.0,6.0,62,0.00,,,-99.99,WeatherLink 5.7,2013-02-10 06:10:00,
2013-02-10 01:20:00,15.9,5.5,30.33,NW,315,1.0,3.0,63,0.00,,,-99.99,WeatherLink 5.7,2013-02-10 06:20:00,
2013-02-10 01:30:00,15.7,5.7,30.34,WNW,292,2.0,8.0,64,0.00,,,-99.99,WeatherLink 5.7,2013-02-10 06:30:00,
2013-02-10 01:40:00,15.8,5.8,30.34,NW,315,3.0,5.0,64,0.00,,,-99.99,WeatherLink 5.7,2013-02-10 06:40:00,
2013-02-10 01:50:00,15.9,5.9,30.34,NW,315,3.0,7.0,64,0.00,,,-99.99,WeatherLink 5.7,2013-02-10 06:50:00,
2013-02-10 02:00:00,16.0,6.0,30.34,NW,315,3.0,7.0,64,0.00,,,-99.99,WeatherLink 5.7,2013-02-10 07:00:00,
2013-02-10 02:10:00,15.9,6.2,30.35,NW,315,3.0,6.0,65,0.00,,,-99.99,WeatherLink 5.7,2013-02-10 07:10:00,
2013-02-10 02:20:00,15.9,5.9,30.34,NW,315,4.0,7.0,64,0.00,,,-99.99,WeatherLink 5.7,2013-02-10 07:20:00,
2013-02-10 02:30:00,15.9,5.9,30.35,NW,315,3.0,7.0,64,0.00,,,-99.99,WeatherLink 5.7,2013-02-10 07:30:00,
2013-02-10 02:40:00,15.7,6.0,30.34,NW,315,3.0,5.0,65,0.00,,,-99.99,WeatherLink 5.7,2013-02-10 07:40:00,
2013-02-10 02:50:00,15.6,5.9,30.34,NW,315,3.0,6.0,65,0.00,,,-99.99,WeatherLink 5.7,2013-02-10 07:50:00,
2013-02-10 03:00:00,15.4,6.1,30.34,NW,315,3.0,6.0,66,0.00,,,-99.99,WeatherLink 5.7,2013-02-10 08:00:00,
2013-02-10 03:10:00,15.4,6.1,30.33,NW,315,4.0,6.0,66,0.00,,,-99.99,WeatherLink 5.7,2013-02-10 08:10:00,
2013-02-10 03:20:00,15.4,6.4,30.33,NW,315,4.0,6.0,67,0.00,,,-99.99,WeatherLink 5.7,2013-02-10 08:20:00,
2013-02-10 03:30:00,15.5,6.5,30.33,NW,315,4.0,7.0,67,0.00,,,-99.99,WeatherLink 5.7,2013-02-10 08:30:00,
2013-02-10 03:40:00,15.7,6.7,30.34,NW,315,5.0,7.0,67,0.00,,,-99.99,WeatherLink 5.7,2013-02-10 08:40:00,
2013-02-10 03:50:00,15.7,6.7,30.32,NW,315,4.0,6.0,67,0.00,,,-99.99,WeatherLink 5.7,2013-02-10 08:50:00,
2013-02-10 04:00:00,15.7,6.7,30.33,NW,315,5.0,8.0,67,0.00,,,-99.99,WeatherLink 5.7,2013-02-10 09:00:00,
2013-02-10 04:10:00,15.8,6.8,30.33,NW,315,5.0,8.0,67,0.00,,,-99.99,WeatherLink 5.7,2013-02-10 09:10:00,
2013-02-10 04:20:00,15.6,6.9,30.33,NW,315,5.0,7.0,68,0.00,,,-99.99,WeatherLink 5.7,2013-02-10 09:20:00,
2013-02-10 04:30:00,15.6,6.9,30.33,NW,315,6.0,9.0,68,0.00,,,-99.99,WeatherLink 5.7,2013-02-10 09:30:00,
2013-02-10 04:40:00,15.5,6.8,30.34,NW,315,5.0,7.0,68,0.00,,,-99.99,WeatherLink 5.7,2013-02-10 09:40:00,
2013-02-10 04:50:00,15.5,6.8,30.34,NW,315,4.0,7.0,68,0.00,,,-99.99,WeatherLink 5.7,2013-02-10 09:50:00,
2013-02-10 05:00:00,15.5,7.1,30.33,NW,315,3.0,6.0,69,0.00,,,-99.99,WeatherLink 5.7,2013-02-10 10:00:00,
2013-02-10 05:11:00,15.3,6.9,30.35,NW,315,3.0,5.0,69,0.00,,,-99.99,WeatherLink 5.7,2013-02-10 10:11:00,
2013-02-10 05:20:00,15.2,6.8,30.35,NW,315,3.0,6.0,69,0.00,,,-99.99,WeatherLink 5.7,2013-02-10 10:20:00,
2013-02-10 05:30:00,15.3,6.9,30.34,NW,315,4.0,8.0,69,0.00,,,-99.99,WeatherLink 5.7,2013-02-10 10:30:00,
2013-02-10 05:40:00,15.5,6.8,30.35,NW,315,4.0,8.0,68,0.00,,,-99.99,WeatherLink 5.7,2013-02-10 10:40:00,
2013-02-10 05:50:00,15.4,7.0,30.36,NW,315,3.0,6.0,69,0.00,,,-99.99,WeatherLink 5.7,2013-02-10 10:50:00,
2013-02-10 06:00:00,15.3,6.9,30.35,NNW,337,3.0,7.0,69,0.00,,,-99.99,WeatherLink 5.7,2013-02-10 11:00:00,
2013-02-10 06:10:00,15.3,6.6,30.36,NW,315,3.0,8.0,68,0.00,,,-99.99,WeatherLink 5.7,2013-02-10 11:10:00,
2013-02-10 06:20:00,15.3,6.9,30.36,NNW,337,2.0,7.0,69,0.00,,,-99.99,WeatherLink 5.7,2013-02-10 11:20:00,
2013-02-10 06:30:00,14.9,6.2,30.36,NW,315,1.0,4.0,68,0.00,,,-99.99,WeatherLink 5.7,2013-02-10 11:30:00,
2013-02-10 06:40:00,14.4,6.1,30.37,NW,315,1.0,2.0,69,0.00,,,-99.99,WeatherLink 5.7,2013-02-10 11:40:00,
2013-02-10 06:50:00,14.0,6.0,30.37,NW,315,1.0,3.0,70,0.00,,,-99.99,WeatherLink 5.7,2013-02-10 11:50:00,
2013-02-10 07:00:00,14.2,6.2,30.38,NW,315,1.0,3.0,70,0.00,,,-99.99,WeatherLink 5.7,2013-02-10 12:00:00,
2013-02-10 07:10:00,14.0,6.0,30.38,NW,315,0.0,2.0,70,0.00,,,-99.99,WeatherLink 5.7,2013-02-10 12:10:00,
2013-02-10 07:20:00,13.8,5.8,30.38,NNW,337,0.0,2.0,70,0.00,,,-99.99,WeatherLink 5.7,2013-02-10 12:20:00,
2013-02-10 07:30:00,14.3,6.3,30.38,NW,315,1.0,4.0,70,0.00,,,-99.99,WeatherLink 5.7,2013-02-10 12:30:00,
2013-02-10 07:40:00,15.1,6.8,30.39,NW,315,3.0,5.0,69,0.00,,,-99.99,WeatherLink 5.7,2013-02-10 12:40:00,
2013-02-10 07:50:00,15.7,7.0,30.40,NNW,337,3.0,5.0,68,0.00,,,-99.99,WeatherLink 5.7,2013-02-10 12:50:00,
2013-02-10 08:00:00,16.2,7.2,30.41,NW,315,3.0,6.0,67,0.00,,,-99.99,WeatherLink 5.7,2013-02-10 13:00:00,
2013-02-10 08:10:00,16.7,7.3,30.41,NW,315,3.0,5.0,66,0.00,,,-99.99,WeatherLink 5.7,2013-02-10 13:10:00,
2013-02-10 08:20:00,17.4,7.6,30.41,NW,315,2.0,3.0,65,0.00,,,-99.99,WeatherLink 5.7,2013-02-10 13:20:00,
2013-02-10 08:30:00,17.8,7.7,30.41,NW,315,2.0,4.0,64,0.00,,,-99.99,WeatherLink 5.7,2013-02-10 13:30:00,
2013-02-10 08:40:00,18.7,7.8,30.41,WNW,292,1.0,5.0,62,0.00,,,-99.99,WeatherLink 5.7,2013-02-10 13:40:00,
2013-02-10 08:50:00,19.5,8.2,30.41,NW,315,1.0,4.0,61,0.00,,,-99.99,WeatherLink 5.7,2013-02-10 13:50:00,
2013-02-10 09:00:00,20.4,8.3,30.42,NNW,337,2.0,6.0,59,0.00,,,-99.99,WeatherLink 5.7,2013-02-10 14:00:00,
2013-02-10 09:10:00,21.5,8.6,30.41,NNW,337,2.0,4.0,57,0.00,,,-99.99,WeatherLink 5.7,2013-02-10 14:10:00,
2013-02-10 09:20:00,22.4,9.1,30.42,NW,315,1.0,5.0,56,0.00,,,-99.99,WeatherLink 5.7,2013-02-10 14:20:00,
2013-02-10 09:30:00,23.2,9.0,30.42,NW,315,1.0,4.0,54,0.00,,,-99.99,WeatherLink 5.7,2013-02-10 14:30:00,
2013-02-10 09:40:00,24.3,9.6,30.43,NNW,337,0.0,2.0,53,0.00,,,-99.99,WeatherLink 5.7,2013-02-10 14:40:00,
2013-02-10 09:50:00,25.5,9.4,30.43,NW,315,1.0,3.0,50,0.00,,,-99.99,WeatherLink 5.7,2013-02-10 14:50:00,
2013-02-10 10:00:00,26.9,10.7,30.43,North,0,0.0,3.0,50,0.00,,,-99.99,WeatherLink 5.7,2013-02-10 15:00:00,
2013-02-10 10:10:00,28.6,10.9,30.43,North,0,0.0,3.0,47,0.00,,,-99.99,WeatherLink 5.7,2013-02-10 15:10:00,
2013-02-10 10:20:00,30.2,11.4,30.43,North,0,0.0,2.0,45,0.00,,,-99.99,WeatherLink 5.7,2013-02-10 15:20:00,
2013-02-10 10:30:00,31.8,12.3,30.44,North,0,1.0,3.0,44,0.00,,,-99.99,WeatherLink 5.7,2013-02-10 15:30:00,
2013-02-10 10:40:00,33.8,13.6,30.43,North,0,0.0,2.0,43,0.00,,,-99.99,WeatherLink 5.7,2013-02-10 15:40:00,
2013-02-10 10:50:00,35.5,13.5,30.43,North,0,0.0,1.0,40,0.00,,,-99.99,WeatherLink 5.7,2013-02-10 15:50:00,
2013-02-10 11:11:00,37.3,13.4,30.43,North,0,0.0,2.0,37,0.00,,,-99.99,WeatherLink 5.7,2013-02-10 16:11:00,
2013-02-10 11:21:00,37.9,12.6,30.42,NE,45,0.0,2.0,35,0.00,,,-99.99,WeatherLink 5.7,2013-02-10 16:21:00,
2013-02-10 11:31:00,38.4,13.7,30.42,NE,45,1.0,2.0,36,0.00,,,-99.99,WeatherLink 5.7,2013-02-10 16:31:00,
2013-02-10 11:41:00,37.7,13.7,30.41,WNW,292,1.0,3.0,37,0.00,,,-99.99,WeatherLink 5.7,2013-02-10 16:41:00,
2013-02-10 11:51:00,37.2,11.4,30.41,WNW,292,0.0,2.0,34,0.00,,,-99.99,WeatherLink 5.7,2013-02-10 16:51:00,
2013-02-10 12:01:00,37.8,12.6,30.40,NE,45,0.0,2.0,35,0.00,,,-99.99,WeatherLink 5.7,2013-02-10 17:01:00,
2013-02-10 12:11:00,38.1,12.8,30.39,ESE,112,1.0,4.0,35,0.00,,,-99.99,WeatherLink 5.7,2013-02-10 17:11:00,
2013-02-10 12:21:00,38.5,11.8,30.39,ESE,112,2.0,4.0,33,0.00,,,-99.99,WeatherLink 5.7,2013-02-10 17:21:00,
2013-02-10 12:31:00,38.4,11.8,30.38,SSE,157,1.0,3.0,33,0.00,,,-99.99,WeatherLink 5.7,2013-02-10 17:31:00,
2013-02-10 12:41:00,39.0,12.3,30.38,ESE,112,1.0,4.0,33,0.00,,,-99.99,WeatherLink 5.7,2013-02-10 17:41:00,
2013-02-10 12:51:00,40.3,13.4,30.37,SE,135,1.0,3.0,33,0.00,,,-99.99,WeatherLink 5.7,2013-02-10 17:51:00,
2013-02-10 13:01:00,40.3,13.4,30.36,SE,135,1.0,4.0,33,0.00,,,-99.99,WeatherLink 5.7,2013-02-10 18:01:00,
2013-02-10 13:11:00,40.2,14.0,30.36,SE,135,2.0,4.0,34,0.00,,,-99.99,WeatherLink 5.7,2013-02-10 18:11:00,
2013-02-10 13:21:00,40.0,13.8,30.37,SE,135,1.0,3.0,34,0.00,,,-99.99,WeatherLink 5.7,2013-02-10 18:21:00,
2013-02-10 13:31:00,40.0,14.5,30.36,ESE,112,1.0,4.0,35,0.00,,,-99.99,WeatherLink 5.7,2013-02-10 18:31:00,
2013-02-10 13:41:00,40.3,13.4,30.36,SSE,157,1.0,3.0,33,0.00,,,-99.99,WeatherLink 5.7,2013-02-10 18:41:00,
2013-02-10 13:51:00,40.2,12.6,30.36,SE,135,1.0,3.0,32,0.00,,,-99.99,WeatherLink 5.7,2013-02-10 18:51:00,
2013-02-10 14:01:00,40.2,14.0,30.36,ESE,112,1.0,3.0,34,0.00,,,-99.99,WeatherLink 5.7,2013-02-10 19:01:00,
2013-02-10 14:11:00,40.2,14.0,30.36,SE,135,2.0,4.0,34,0.00,,,-99.99,WeatherLink 5.7,2013-02-10 19:11:00,
2013-02-10 14:21:00,39.9,14.4,30.38,SE,135,1.0,5.0,35,0.00,,,-99.99,WeatherLink 5.7,2013-02-10 19:21:00,
2013-02-10 14:31:00,39.8,13.7,30.35,SE,135,1.0,4.0,34,0.00,,,-99.99,WeatherLink 5.7,2013-02-10 19:31:00,
2013-02-10 14:41:00,39.5,13.4,30.35,SE,135,1.0,3.0,34,0.00,,,-99.99,WeatherLink 5.7,2013-02-10 19:41:00,
2013-02-10 14:51:00,38.8,13.4,30.35,SE,135,1.0,4.0,35,0.00,,,-99.99,WeatherLink 5.7,2013-02-10 19:51:00,
2013-02-10 15:01:00,38.0,14.0,30.34,ESE,112,1.0,3.0,37,0.00,,,-99.99,WeatherLink 5.7,2013-02-10 20:01:00,
2013-02-10 15:11:00,37.1,13.2,30.35,ESE,112,1.0,3.0,37,0.00,,,-99.99,WeatherLink 5.7,2013-02-10 20:11:00,
2013-02-10 15:21:00,36.0,12.2,30.35,SE,135,1.0,3.0,37,0.00,,,-99.99,WeatherLink 5.7,2013-02-10 20:21:00,
2013-02-10 15:31:00,35.1,13.2,30.35,SE,135,0.0,3.0,40,0.00,,,-99.99,WeatherLink 5.7,2013-02-10 20:31:00,
2013-02-10 15:41:00,34.6,13.3,30.35,SE,135,0.0,2.0,41,0.00,,,-99.99,WeatherLink 5.7,2013-02-10 20:41:00,
2013-02-10 15:51:00,34.1,13.4,30.34,SE,135,0.0,2.0,42,0.00,,,-99.99,WeatherLink 5.7,2013-02-10 20:51:00,
2013-02-10 16:01:00,33.4,12.2,30.34,SE,135,0.0,1.0,41,0.00,,,-99.99,WeatherLink 5.7,2013-02-10 21:01:00,
2013-02-10 16:11:00,32.8,12.2,30.34,SSE,157,1.0,3.0,42,0.00,,,-99.99,WeatherLink 5.7,2013-02-10 21:11:00,
2013-02-10 16:21:00,32.1,12.1,30.33,SSE,157,1.0,3.0,43,0.00,,,-99.99,WeatherLink 5.7,2013-02-10 21:21:00,
2013-02-10 16:31:00,31.4,12.5,30.33,SSE,157,0.0,1.0,45,0.00,,,-99.99,WeatherLink 5.7,2013-02-10 21:31:00,
2013-02-10 16:41:00,30.9,11.5,30.34,SSE,157,0.0,2.0,44,0.00,,,-99.99,WeatherLink 5.7,2013-02-10 21:41:00,
2013-02-10 16:51:00,30.6,11.7,30.34,SSE,157,0.0,1.0,45,0.00,,,-99.99,WeatherLink 5.7,2013-02-10 21:51:00,
2013-02-10 17:01:00,30.2,12.4,30.34,SSE,157,0.0,1.0,47,0.00,,,-99.99,WeatherLink 5.7,2013-02-10 22:01:00,
2013-02-10 17:11:00,29.7,12.8,30.34,North,-999,0.0,0.0,49,0.00,,,-99.99,WeatherLink 5.7,2013-02-10 22:11:00,
2013-02-10 17:21:00,29.1,12.8,30.34,North,-999,0.0,0.0,50,0.00,,,-99.99,WeatherLink 5.7,2013-02-10 22:21:00,
2013-02-10 17:31:00,28.5,12.2,30.34,North,-999,0.0,0.0,50,0.00,,,-99.99,WeatherLink 5.7,2013-02-10 22:31:00,
2013-02-10 17:41:00,28.0,11.3,30.35,North,-999,0.0,0.0,49,0.00,,,-99.99,WeatherLink 5.7,2013-02-10 22:41:00,
2013-02-10 17:51:00,27.7,11.9,30.35,North,-999,0.0,0.0,51,0.00,,,-99.99,WeatherLink 5.7,2013-02-10 22:51:00,
2013-02-10 18:01:00,27.3,11.5,30.35,North,-999,0.0,0.0,51,0.00,,,-99.99,WeatherLink 5.7,2013-02-10 23:01:00,
2013-02-10 18:11:00,26.9,12.5,30.35,North,-999,0.0,0.0,54,0.00,,,-99.99,WeatherLink 5.7,2013-02-10 23:11:00,
2013-02-10 18:21:00,26.5,12.1,30.35,North,-999,0.0,0.0,54,0.00,,,-99.99,WeatherLink 5.7,2013-02-10 23:21:00,
2013-02-10 18:31:00,26.2,11.8,30.35,North,-999,0.0,0.0,54,0.00,,,-99.99,WeatherLink 5.7,2013-02-10 23:31:00,
2013-02-10 18:41:00,25.9,12.3,30.34,North,-999,0.0,0.0,56,0.00,,,-99.99,WeatherLink 5.7,2013-02-10 23:41:00,
2013-02-10 18:51:00,25.6,12.9,30.35,North,-999,0.0,0.0,58,0.00,,,-99.99,WeatherLink 5.7,2013-02-10 23:51:00,
2013-02-10 19:01:00,25.6,13.2,30.34,North,-999,0.0,0.0,59,0.00,,,-99.99,WeatherLink 5.7,2013-02-11 00:01:00,
2013-02-10 19:11:00,25.7,14.1,30.33,North,-999,0.0,0.0,61,0.00,,,-99.99,WeatherLink 5.7,2013-02-11 00:11:00,
2013-02-10 19:21:00,25.6,13.2,30.34,North,-999,0.0,0.0,59,0.00,,,-99.99,WeatherLink 5.7,2013-02-11 00:21:00,
2013-02-10 19:31:00,25.7,13.7,30.34,North,-999,0.0,0.0,60,0.00,,,-99.99,WeatherLink 5.7,2013-02-11 00:31:00,
2013-02-10 19:41:00,25.8,14.6,30.34,North,-999,0.0,0.0,62,0.00,,,-99.99,WeatherLink 5.7,2013-02-11 00:41:00,
2013-02-10 19:51:00,25.8,14.6,30.33,North,-999,0.0,0.0,62,0.00,,,-99.99,WeatherLink 5.7,2013-02-11 00:51:00,
2013-02-10 20:01:00,25.7,14.5,30.33,SSE,157,0.0,1.0,62,0.00,,,-99.99,WeatherLink 5.7,2013-02-11 01:01:00,
2013-02-10 20:11:00,25.2,14.0,30.32,North,-999,0.0,0.0,62,0.00,,,-99.99,WeatherLink 5.7,2013-02-11 01:11:00,
2013-02-10 20:21:00,24.9,13.7,30.33,SSE,157,0.0,1.0,62,0.00,,,-99.99,WeatherLink 5.7,2013-02-11 01:21:00,
2013-02-10 20:31:00,25.0,13.8,30.33,North,-999,0.0,0.0,62,0.00,,,-99.99,WeatherLink 5.7,2013-02-11 01:31:00,
2013-02-10 20:41:00,25.5,13.1,30.33,North,-999,0.0,0.0,59,0.00,,,-99.99,WeatherLink 5.7,2013-02-11 01:41:00,
2013-02-10 20:51:00,25.8,13.8,30.33,North,-999,0.0,0.0,60,0.00,,,-99.99,WeatherLink 5.7,2013-02-11 01:51:00,
2013-02-10 21:01:00,26.0,14.0,30.32,SSE,157,0.0,1.0,60,0.00,,,-99.99,WeatherLink 5.7,2013-02-11 02:01:00,
2013-02-10 21:11:00,25.8,15.3,30.33,SSE,157,0.0,1.0,64,0.00,,,-99.99,WeatherLink 5.7,2013-02-11 02:11:00,
2013-02-10 21:21:00,25.5,14.3,30.32,SSE,157,0.0,2.0,62,0.00,,,-99.99,WeatherLink 5.7,2013-02-11 02:21:00,
2013-02-10 21:31:00,26.0,14.8,30.32,SSE,157,0.0,2.0,62,0.00,,,-99.99,WeatherLink 5.7,2013-02-11 02:31:00,
2013-02-10 21:41:00,26.5,16.0,30.31,SSE,157,0.0,1.0,64,0.00,,,-99.99,WeatherLink 5.7,2013-02-11 02:41:00,
2013-02-10 21:51:00,26.7,14.3,30.31,SSE,157,1.0,2.0,59,0.00,,,-99.99,WeatherLink 5.7,2013-02-11 02:51:00,
2013-02-10 22:01:00,27.3,14.5,30.30,SSE,157,1.0,3.0,58,0.00,,,-99.99,WeatherLink 5.7,2013-02-11 03:01:00,
2013-02-10 22:11:00,27.6,15.1,30.31,SSE,157,1.0,2.0,59,0.00,,,-99.99,WeatherLink 5.7,2013-02-11 03:11:00,
2013-02-10 22:21:00,27.8,15.7,30.31,SSE,157,1.0,2.0,60,0.00,,,-99.99,WeatherLink 5.7,2013-02-11 03:21:00,
2013-02-10 22:31:00,27.7,16.7,30.30,SSE,157,0.0,1.0,63,0.00,,,-99.99,WeatherLink 5.7,2013-02-11 03:31:00,
2013-02-10 22:41:00,27.6,16.6,30.29,SSE,157,0.0,1.0,63,0.00,,,-99.99,WeatherLink 5.7,2013-02-11 03:41:00,
2013-02-10 22:51:00,27.6,17.7,30.28,SSE,157,0.0,1.0,66,0.00,,,-99.99,WeatherLink 5.7,2013-02-11 03:51:00,
2013-02-10 23:01:00,27.5,16.9,30.28,SSE,157,0.0,2.0,64,0.00,,,-99.99,WeatherLink 5.7,2013-02-11 04:01:00,
2013-02-10 23:11:00,27.5,17.3,30.29,North,-999,0.0,0.0,65,0.00,,,-99.99,WeatherLink 5.7,2013-02-11 04:11:00,
2013-02-10 23:21:00,27.6,18.1,30.29,North,-999,0.0,0.0,67,0.00,,,-99.99,WeatherLink 5.7,2013-02-11 04:21:00,
2013-02-10 23:31:00,27.5,17.6,30.28,SSE,157,0.0,2.0,66,0.00,,,-99.99,WeatherLink 5.7,2013-02-11 04:31:00,
2013-02-10 23:41:00,27.6,17.4,30.28,SSE,157,0.0,2.0,65,0.00,,,-99.99,WeatherLink 5.7,2013-02-11 04:41:00,
2013-02-10 23:51:00,27.6,17.4,30.28,SSE,157,0.0,2.0,65,0.00,,,-99.99,WeatherLink 5.7,2013-02-11 04:51:00,